GW2067 Weather Reports


Display with metric or nautical units.
time (UTC)temp
F
wind
direction
speed
MPH
gust
MPH
rain 1hr
in
rain 24hr
in
rain mn
in
humidity
%
barometer
mb
20260507095215 38 0 0.0 0.0 0.00 0.00 0.00 99 1007.4
20260507094712 38 302 3.0 5.0 0.00 0.00 0.00 99 1007.3
20260507094209 38 284 1.0 1.0 0.00 0.00 0.00 99 1007.2
20260507093705 38 5 0.0 0.0 0.00 0.00 0.00 99 1007.3
20260507093204 38 55 3.0 5.0 0.00 0.00 0.00 99 1007.4
20260507092701 38 35 0.0 0.0 0.00 0.00 0.00 99 1007.3
20260507092157 38 349 2.0 2.0 0.00 0.00 0.00 99 1007.4
20260507091654 38 353 0.0 0.0 0.00 0.00 0.00 99 1007.3
20260507091150 38 348 0.0 0.0 0.00 0.00 0.00 99 1007.4
20260507090645 38 2 0.0 0.0 0.00 0.00 0.00 99 1007.4
20260507090143 38 336 0.0 0.0 0.00 0.00 0.00 99 1007.1
20260507085640 38 33 0.0 0.0 0.00 0.00 0.00 99 1007.2
20260507085137 38 268 1.0 2.0 0.00 0.00 0.00 99 1007.2
20260507084633 38 328 1.0 2.0 0.00 0.00 0.00 99 1007.5
20260507084130 38 255 1.0 1.0 0.00 0.00 0.00 99 1007.2
20260507083627 38 5 1.0 1.0 0.00 0.00 0.00 99 1007.2
20260507083124 38 309 0.0 0.0 0.00 0.00 0.00 99 1007.1
20260507082619 38 343 0.0 0.0 0.00 0.00 0.00 99 1007.1
20260507082116 38 334 1.0 1.0 0.00 0.00 0.00 99 1007.3
20260507081613 38 330 0.0 1.0 0.00 0.00 0.00 99 1007.2
20260507081109 38 333 0.0 1.0 0.00 0.00 0.00 99 1007.3
20260507080606 38 336 1.0 1.0 0.00 0.00 0.00 99 1007.3
20260507075557 37 309 0.0 1.0 0.00 0.00 0.00 99 1007.3
20260507075054 37 304 1.0 1.0 0.00 0.00 0.00 99 1007.3
20260507074551 37 333 0.0 1.0 0.00 0.00 0.00 99 1007.2
20260507074049 37 320 1.0 1.0 0.00 0.00 0.00 99 1007.3
20260507073545 38 258 4.0 6.0 0.00 0.00 0.00 99 1007.4
20260507073041 37 249 4.0 6.0 0.00 0.00 0.00 99 1007.3
20260507072539 37 276 3.0 3.0 0.00 0.00 0.00 99 1007.3
20260507072036 37 233 5.0 7.0 0.00 0.00 0.00 99 1007.3
20260507071533 37 254 2.0 2.0 0.00 0.00 0.00 99 1007.1
20260507071030 37 279 2.0 2.0 0.00 0.00 0.00 99 1007.1
20260507070527 37 257 3.0 3.0 0.00 0.00 0.00 99 1007.2
20260507070024 37 290 4.0 5.0 0.00 0.00 0.00 99 1007.1
20260507065520 37 242 4.0 5.0 0.00 0.00 0.00 99 1007.3
20260507065018 37 305 1.0 1.0 0.00 0.00 0.00 99 1007.2
20260507064515 38 286 6.0 8.0 0.00 0.00 0.00 99 1007.1
20260507064014 38 258 6.0 7.0 0.00 0.00 0.00 99 1007.2
20260507063510 38 251 1.0 2.0 0.00 0.00 0.00 99 1007.3
20260507063008 38 236 5.0 6.0 0.00 0.00 0.00 99 1007.2
20260507062504 38 243 3.0 3.0 0.00 0.00 0.00 99 1007.2
20260507062002 38 275 3.0 3.0 0.00 0.00 0.00 99 1007.5
20260507061459 38 277 5.0 6.0 0.00 0.00 0.00 99 1007.7
20260507060958 38 326 2.0 3.0 0.00 0.00 0.00 99 1007.7
20260507060454 38 302 5.0 6.0 0.00 0.00 0.00 99 1007.7
20260507055951 38 274 3.0 3.0 0.00 0.00 0.00 99 1007.6
20260507055446 38 251 3.0 6.0 0.00 0.00 0.00 99 1007.7
20260507054943 38 327 4.0 5.0 0.00 0.00 0.00 99 1008.0
20260507054439 38 294 5.0 7.0 0.00 0.00 0.00 99 1007.7
20260507053936 38 315 3.0 3.0 0.00 0.00 0.00 99 1007.9
20260507053434 38 230 5.0 6.0 0.00 0.00 0.00 99 1008.0
20260507052932 38 265 5.0 6.0 0.00 0.00 0.00 99 1008.0
20260507052430 38 282 3.0 5.0 0.00 0.00 0.00 99 1008.1
20260507051927 38 12 5.0 7.0 0.00 0.00 0.00 99 1008.2
20260507051424 38 282 4.0 6.0 0.00 0.00 0.00 99 1008.0
20260507050921 38 277 3.0 3.0 0.00 0.00 0.00 99 1008.3
20260507050418 38 270 2.0 3.0 0.00 0.00 0.00 99 1008.3
20260507045915 38 341 3.0 5.0 0.00 0.00 0.00 99 1008.2
20260507045411 38 283 3.0 3.0 0.00 0.00 0.00 99 1008.3
20260507044908 38 270 5.0 6.0 0.00 0.00 0.00 99 1008.1
20260507044405 38 266 3.0 3.0 0.00 0.00 0.00 99 1008.3
20260507043901 38 254 4.0 5.0 0.00 0.00 0.00 99 1008.3
20260507043357 38 272 2.0 2.0 0.00 0.00 0.00 99 1008.4
20260507042854 38 288 5.0 7.0 0.00 0.00 0.00 99 1008.4
20260507042350 38 253 3.0 5.0 0.00 0.00 0.00 99 1008.5
20260507041846 38 257 3.0 3.0 0.00 0.00 0.00 99 1008.5
20260507041343 38 313 2.0 2.0 0.00 0.00 0.00 99 1008.5
20260507040841 38 328 1.0 2.0 0.00 0.00 0.00 99 1008.5
20260507040336 38 329 3.0 3.0 0.00 0.00 0.00 99 1008.6
20260507035832 38 336 0.0 0.0 0.00 0.74 0.74 99 1008.5
20260507035328 38 280 3.0 5.0 0.00 0.74 0.74 99 1008.5
20260507034826 39 281 2.0 3.0 0.00 0.74 0.74 99 1008.5
20260507034323 39 277 2.0 3.0 0.00 0.74 0.74 99 1008.8
20260507033821 39 312 1.0 1.0 0.00 0.74 0.74 99 1008.9
20260507033318 39 285 2.0 2.0 0.00 0.74 0.74 99 1009.0
20260507032815 39 311 1.0 1.0 0.00 0.74 0.74 99 1008.6
20260507032311 39 329 1.0 1.0 0.00 0.74 0.74 99 1008.9
20260507031808 39 321 0.0 0.0 0.00 0.74 0.74 99 1008.5
20260507031305 39 317 0.0 1.0 0.00 0.74 0.74 99 1008.8
20260507030801 39 336 1.0 2.0 0.00 0.74 0.74 99 1008.5
20260507030259 39 254 3.0 3.0 0.00 0.74 0.74 99 1008.5
20260507025756 39 288 2.0 2.0 0.00 0.74 0.74 99 1008.8
20260507025253 39 279 2.0 2.0 0.00 0.74 0.74 99 1008.9
20260507024751 39 254 2.0 3.0 0.00 0.74 0.74 99 1008.8
20260507024248 39 296 2.0 2.0 0.00 0.74 0.74 99 1008.8
20260507023743 39 321 1.0 1.0 0.00 0.74 0.74 99 1008.6
20260507023240 39 324 1.0 1.0 0.00 0.74 0.74 99 1008.5
20260507022738 39 344 0.0 1.0 0.00 0.74 0.74 99 1008.5
20260507022233 39 310 1.0 2.0 0.00 0.74 0.74 99 1008.8
20260507021730 39 305 1.0 1.0 0.00 0.74 0.74 99 1008.8
20260507021225 39 247 4.0 5.0 0.00 0.74 0.74 99 1008.6
20260507020724 39 301 2.0 2.0 0.00 0.74 0.74 99 1008.5
20260507020220 39 314 1.0 1.0 0.00 0.74 0.74 99 1008.6
20260507015718 39 340 0.0 0.0 0.00 0.74 0.74 99 1009.0
20260507015215 39 325 0.0 1.0 0.00 0.74 0.74 99 1008.8
20260507014711 39 333 1.0 1.0 0.00 0.74 0.74 99 1008.8
20260507014208 39 309 1.0 2.0 0.00 0.74 0.74 99 1008.8
20260507013705 39 336 0.0 0.0 0.00 0.74 0.74 99 1008.6
20260507013202 39 324 2.0 2.0 0.00 0.74 0.74 99 1009.1
20260507012700 39 256 2.0 2.0 0.00 0.74 0.74 99 1008.8
20260507012155 39 290 1.0 1.0 0.00 0.74 0.74 99 1008.8
20260507011653 39 336 1.0 2.0 0.00 0.74 0.74 99 1008.9
20260507011149 40 247 1.0 2.0 0.00 0.74 0.74 99 1008.8
20260507010644 40 297 1.0 1.0 0.00 0.74 0.74 99 1009.1
20260507010140 40 339 0.0 0.0 0.00 0.74 0.74 99 1008.9
20260507005637 40 333 0.0 0.0 0.00 0.74 0.74 99 1009.0
20260507005133 40 308 1.0 1.0 0.00 0.74 0.74 99 1009.1
20260507004630 40 322 1.0 1.0 0.00 0.74 0.74 99 1009.2
20260507004128 40 325 0.0 0.0 0.00 0.74 0.74 99 1009.1
20260507003624 40 338 0.0 0.0 0.00 0.74 0.74 99 1008.9
20260507003120 40 342 0.0 0.0 0.00 0.74 0.74 99 1008.8
20260507002616 40 336 0.0 0.0 0.05 0.74 0.74 99 1009.1
20260507002111 41 323 0.0 0.0 0.05 0.74 0.74 99 1009.1
20260507001608 41 323 0.0 1.0 0.05 0.74 0.74 99 1009.1
20260507001106 41 313 0.0 1.0 0.00 0.73 0.73 99 1009.1
20260507000602 41 328 0.0 0.0 0.00 0.73 0.73 99 1009.0
20260507000058 41 339 0.0 0.0 0.00 0.73 0.73 99 1008.9
20260506235555 41 332 0.0 0.0 0.00 0.73 0.73 99 1009.1
20260506235050 41 333 0.0 0.0 0.00 0.73 0.73 99 1009.2
20260506234548 41 9 0.0 1.0 0.00 0.73 0.73 99 1009.0
20260506234045 41 310 0.0 0.0 0.00 0.73 0.73 99 1008.6
20260506233542 41 7 0.0 0.0 0.00 0.73 0.73 99 1009.0
20260506233039 41 333 0.0 0.0 0.07 0.73 0.73 99 1009.0
20260506232535 41 320 0.0 0.0 0.07 0.73 0.73 99 1008.9
20260506232030 41 327 0.0 1.0 0.05 0.72 0.72 99 1009.0
20260506231528 41 300 1.0 1.0 0.05 0.72 0.72 99 1009.1
20260506231026 41 340 0.0 0.0 0.07 0.71 0.71 99 1008.8
20260506230522 41 321 0.0 1.0 0.07 0.71 0.71 99 1009.0
20260506230020 41 334 1.0 1.0 0.00 0.70 0.70 99 1009.0
20260506225516 42 310 1.0 1.0 0.00 0.70 0.70 99 1008.9
20260506225007 42 330 0.0 0.0 0.00 0.70 0.70 99 1009.0
20260506224504 42 300 2.0 2.0 0.00 0.70 0.70 99 1009.0
20260506224001 42 331 1.0 1.0 0.00 0.70 0.70 99 1008.9
20260506223456 42 277 3.0 3.0 0.00 0.70 0.70 99 1009.0
20260506222954 42 332 1.0 1.0 0.05 0.70 0.70 99 1009.0
20260506222450 42 283 3.0 3.0 0.05 0.70 0.70 99 1009.1
20260506221947 42 314 1.0 1.0 0.00 0.69 0.69 99 1009.2
20260506221444 42 288 2.0 2.0 0.07 0.69 0.69 99 1009.0
20260506220942 42 326 1.0 1.0 0.07 0.69 0.69 99 1009.0
20260506220437 43 312 1.0 1.0 0.00 0.68 0.68 99 1009.0
20260506215934 43 311 2.0 2.0 0.00 0.68 0.68 99 1009.0
20260506215430 43 310 1.0 1.0 0.00 0.68 0.68 99 1009.1
20260506214926 44 328 0.0 1.0 0.00 0.68 0.68 99 1009.1
20260506214423 44 326 0.0 0.0 0.00 0.68 0.68 99 1009.0
20260506213921 43 312 0.0 1.0 0.00 0.68 0.68 99 1009.0
20260506213418 43 298 1.0 1.0 0.00 0.68 0.68 99 1008.8
20260506212916 44 333 0.0 0.0 0.00 0.68 0.68 99 1009.0
20260506212411 43 327 0.0 0.0 0.00 0.68 0.68 99 1008.8
20260506211906 43 325 1.0 1.0 0.00 0.68 0.68 99 1008.8
20260506211403 43 302 0.0 0.0 0.00 0.68 0.68 99 1009.0
20260506210900 43 325 0.0 0.0 0.00 0.68 0.68 99 1009.0
20260506210356 44 324 0.0 0.0 0.00 0.68 0.68 99 1009.1
20260506205854 44 331 0.0 0.0 0.00 0.68 0.68 99 1008.9
20260506205349 43 341 0.0 0.0 0.00 0.68 0.68 99 1009.0
20260506204846 43 327 0.0 0.0 0.00 0.68 0.68 99 1009.2
20260506204344 43 325 0.0 0.0 0.00 0.68 0.68 99 1009.0
20260506203841 43 320 0.0 0.0 0.00 0.68 0.68 99 1009.1
20260506203338 43 341 0.0 0.0 0.00 0.68 0.68 99 1008.9
20260506202835 43 340 0.0 0.0 0.00 0.68 0.68 99 1009.0
20260506202332 43 346 0.0 1.0 0.00 0.68 0.68 99 1008.8
20260506201829 43 311 1.0 1.0 0.05 0.68 0.68 99 1008.9
20260506201326 43 324 0.0 0.0 0.05 0.68 0.68 99 1008.9
20260506200822 43 301 0.0 1.0 0.05 0.68 0.68 99 1009.1
20260506200319 43 341 0.0 1.0 0.00 0.67 0.67 99 1009.2
20260506195815 43 345 0.0 0.0 0.07 0.67 0.67 99 1009.1
20260506195313 43 348 0.0 0.0 0.07 0.67 0.67 99 1009.2
20260506194809 42 0 0.0 0.0 0.07 0.67 0.67 99 1009.2
20260506194306 42 342 0.0 0.0 0.00 0.66 0.66 99 1009.3
20260506193804 43 349 0.0 0.0 0.05 0.66 0.66 99 1009.4
20260506193300 43 347 0.0 0.0 0.05 0.66 0.66 99 1009.6
20260506192756 43 16 0.0 0.0 0.07 0.65 0.65 99 1009.6
20260506192253 42 343 0.0 0.0 0.07 0.65 0.65 99 1010.0
20260506191750 43 5 0.0 0.0 0.07 0.64 0.64 99 1009.8
20260506191246 43 333 0.0 0.0 0.12 0.64 0.64 99 1009.9
20260506190744 43 34 0.0 0.0 0.05 0.63 0.63 99 1009.7
20260506190240 43 345 0.0 0.0 0.12 0.63 0.63 99 1009.9
20260506185737 43 338 0.0 0.0 0.07 0.62 0.62 99 1009.9
20260506185234 42 334 0.0 0.0 0.05 0.61 0.61 99 1010.0
20260506184731 42 17 1.0 1.0 0.05 0.61 0.61 99 1009.7
20260506184228 42 339 0.0 0.0 0.07 0.60 0.60 99 1010.1
20260506183725 43 333 0.0 0.0 0.07 0.60 0.60 99 1009.8
20260506183221 42 340 0.0 0.0 0.05 0.59 0.59 99 1009.9
20260506182718 42 346 0.0 0.0 0.12 0.59 0.59 99 1009.8
20260506182215 42 325 0.0 0.0 0.07 0.58 0.58 99 1009.8
20260506181713 42 332 0.0 0.0 0.05 0.57 0.57 99 1010.0
20260506181211 42 1 0.0 0.0 0.05 0.57 0.57 99 1009.9
20260506180707 42 358 0.0 0.0 0.07 0.56 0.56 99 1010.0
20260506180203 42 13 0.0 0.0 0.12 0.56 0.56 99 1010.1
20260506175700 42 349 0.0 0.0 0.05 0.55 0.55 99 1010.2
20260506175156 42 336 0.0 0.0 0.12 0.55 0.55 99 1010.4
20260506174654 42 358 0.0 0.0 0.14 0.54 0.54 99 1010.3
20260506174151 43 316 0.0 0.0 0.12 0.53 0.53 99 1010.3
20260506173649 42 335 0.0 0.0 0.05 0.52 0.52 99 1010.3
20260506173145 42 331 0.0 0.0 0.07 0.51 0.51 99 1010.4
20260506172642 42 332 0.0 0.0 0.07 0.51 0.51 99 1010.6
20260506172139 42 308 1.0 1.0 0.05 0.50 0.50 99 1010.4
20260506171631 42 341 0.0 0.0 0.05 0.50 0.50 99 1010.4
20260506171128 42 0 0.0 0.0 0.00 0.49 0.49 99 1010.5
20260506170625 42 338 0.0 0.0 0.07 0.49 0.49 99 1010.7
20260506170117 42 358 0.0 0.0 0.07 0.49 0.49 99 1010.8
20260506165615 42 4 0.0 0.0 0.05 0.48 0.48 99 1011.0
20260506165111 42 333 0.0 0.0 0.12 0.48 0.48 99 1011.2
20260506164609 42 306 0.0 0.0 0.07 0.47 0.47 99 1011.4
20260506164106 42 338 0.0 0.0 0.05 0.46 0.46 99 1011.3
20260506163601 42 294 2.0 2.0 0.12 0.46 0.46 99 1011.4
20260506163057 42 328 1.0 1.0 0.07 0.45 0.45 99 1011.2
20260506162553 42 324 0.0 1.0 0.05 0.44 0.44 99 1011.3
20260506162046 42 288 1.0 1.0 0.12 0.44 0.44 99 1011.4
20260506161543 42 318 0.0 1.0 0.07 0.43 0.43 99 1011.5
20260506161039 42 319 1.0 1.0 0.05 0.42 0.42 99 1011.5
20260506160537 42 334 0.0 0.0 0.05 0.42 0.42 99 1011.6
20260506160034 42 327 1.0 1.0 0.07 0.41 0.41 99 1011.4
20260506155533 42 343 0.0 1.0 0.14 0.41 0.41 99 1011.5
20260506153709 42 338 2.0 2.0 0.05 0.39 0.39 99 1011.4
20260506153207 42 338 1.0 1.0 0.07 0.38 0.38 99 1011.5
20260506152704 42 316 2.0 2.0 0.12 0.38 0.38 99 1011.6
20260506152201 42 321 1.0 1.0 0.12 0.37 0.37 99 1011.5
20260506151700 42 266 2.0 2.0 0.07 0.36 0.36 99 1011.7
20260506151156 42 335 0.0 0.0 0.12 0.35 0.35 99 1011.4
20260506150653 42 338 1.0 1.0 0.07 0.34 0.34 99 1011.5
20260506150150 41 324 2.0 2.0 0.12 0.34 0.34 99 1011.9
20260506145647 42 292 1.0 1.0 0.12 0.33 0.33 99 1012.1
20260506145143 42 286 1.0 1.0 0.12 0.32 0.32 99 1011.9
20260506144641 42 273 1.0 1.0 0.12 0.31 0.31 99 1012.0
20260506144137 42 230 1.0 2.0 0.12 0.30 0.30 99 1012.2
20260506143635 42 294 1.0 1.0 0.12 0.29 0.29 99 1012.2
20260506143133 42 293 0.0 1.0 0.07 0.28 0.28 99 1012.3
20260506142632 42 312 0.0 1.0 0.07 0.27 0.27 99 1012.4
20260506142129 42 307 1.0 2.0 0.12 0.27 0.27 99 1012.2
20260506141626 42 278 0.0 1.0 0.12 0.26 0.26 99 1012.1
20260506141125 42 316 1.0 1.0 0.12 0.25 0.25 99 1011.7
20260506140622 42 316 1.0 1.0 0.12 0.24 0.24 99 1011.8
20260506140119 42 332 0.0 0.0 0.12 0.23 0.23 99 1011.9
20260506135615 41 207 3.0 3.0 0.05 0.22 0.22 99 1012.0
20260506135112 42 271 2.0 2.0 0.07 0.21 0.21 99 1011.9
20260506134608 42 300 2.0 2.0 0.12 0.21 0.21 99 1011.7
20260506134104 42 310 1.0 2.0 0.12 0.20 0.20 99 1011.8
20260506133602 42 254 2.0 2.0 0.07 0.19 0.19 99 1011.7
20260506133059 42 341 0.0 0.0 0.12 0.19 0.19 99 1011.9
20260506132556 42 308 1.0 1.0 0.05 0.18 0.18 99 1011.7
20260506132053 42 258 2.0 3.0 0.07 0.17 0.17 99 1011.7
20260506131550 42 282 3.0 3.0 0.07 0.17 0.17 99 1011.7
20260506131046 42 267 1.0 1.0 0.05 0.16 0.16 99 1011.8
20260506130543 42 300 3.0 3.0 0.05 0.16 0.16 99 1012.0
20260506130041 42 269 3.0 3.0 0.07 0.15 0.15 99 1012.2
20260506125539 42 285 2.0 2.0 0.07 0.15 0.15 99 1012.1
20260506125037 42 270 2.0 3.0 0.07 0.15 0.15 99 1011.9
20260506124534 42 317 1.0 2.0 0.07 0.14 0.14 99 1011.7
20260506124032 42 290 2.0 3.0 0.12 0.14 0.14 99 1011.6
20260506123529 43 301 2.0 2.0 0.05 0.13 0.13 99 1011.8
20260506123027 43 288 2.0 2.0 0.07 0.12 0.12 99 1011.9
20260506122524 43 315 2.0 2.0 0.07 0.12 0.12 99 1012.0
20260506122022 43 340 3.0 6.0 0.00 0.11 0.11 99 1012.2
20260506121520 43 322 2.0 2.0 0.05 0.11 0.11 99 1012.0
20260506121015 43 309 1.0 1.0 0.05 0.11 0.11 99 1012.0
20260506120514 43 277 3.0 5.0 0.00 0.10 0.10 99 1012.0
20260506120011 43 259 3.0 6.0 0.07 0.10 0.10 99 1012.1
20260506115509 43 336 1.0 1.0 0.07 0.10 0.10 99 1012.1
20260506115007 43 167 2.0 2.0 0.07 0.10 0.10 99 1012.0
20260506114504 43 320 1.0 1.0 0.00 0.09 0.09 99 1011.8
20260506114002 43 341 0.0 1.0 0.00 0.09 0.09 99 1012.1
20260506113459 43 337 1.0 2.0 0.00 0.09 0.09 99 1012.0
20260506112956 43 258 2.0 2.0 0.00 0.09 0.09 99 1011.9
20260506112453 43 287 3.0 3.0 0.00 0.09 0.09 99 1011.6
20260506111950 43 298 3.0 3.0 0.00 0.09 0.09 99 1011.5
20260506111449 43 295 3.0 3.0 0.00 0.09 0.09 99 1011.6
20260506110945 43 337 0.0 1.0 0.00 0.09 0.09 99 1011.6
20260506110443 43 341 0.0 0.0 0.00 0.09 0.09 99 1011.6
20260506105939 43 24 0.0 0.0 0.00 0.09 0.09 99 1011.5
20260506105436 43 318 1.0 1.0 0.00 0.09 0.09 99 1011.4
20260506104933 43 298 2.0 2.0 0.00 0.09 0.09 99 1011.3
20260506104431 43 343 0.0 0.0 0.00 0.09 0.09 99 1011.2
20260506103930 43 323 1.0 1.0 0.00 0.09 0.09 99 1011.4
20260506103427 43 324 1.0 1.0 0.00 0.09 0.09 99 1011.3
20260506102924 43 326 0.0 0.0 0.00 0.09 0.09 99 1011.3
20260506102421 43 349 0.0 0.0 0.00 0.09 0.09 99 1011.5
20260506101918 43 338 0.0 0.0 0.00 0.09 0.09 99 1011.4
20260506101414 43 283 2.0 3.0 0.00 0.09 0.09 99 1011.3
20260506100912 43 344 0.0 0.0 0.00 0.09 0.09 99 1011.0
20260506100410 43 313 1.0 1.0 0.00 0.09 0.09 99 1011.2
20260506095908 43 11 1.0 1.0 0.00 0.09 0.09 99 1011.0